Miami, FL

12:33 PM EST on February 23, 2018 (GMT -0500)
Miami International

Weather History for KMIA - October, 2011

Change the Weather History Date:

Saturday, October 8, 2011

  Actual Average Record
Temperature  
Mean Temperature 75 °F 81 °F  
Max Temperature 79 °F 87 °F 93 °F (2009)
Min Temperature 70 °F 75 °F 65 °F (1979)
Degree Days  
Heating Degree Days 0 0  
Month to date heating degree days 0 0  
Since 1 July heating degree days 0 0  
Cooling Degree Days 10 16  
Month to date cooling degree days 126 133  
Year to date cooling degree days 4112 3745  
Growing Degree Days 25 (Base 50)    
Moisture  
Dew Point 71 °F    
Average Humidity 87    
Maximum Humidity 100    
Minimum Humidity 74    
Precipitation  
Precipitation 2.92 in 0.26 in 8.59 in (1991)
Month to date precipitation 5.97 2.17  
Year to date precipitation 51.39 52.43  
Snow  
Snow 0.00 in - - ()
Month to date snowfall 0.0  
Since 1 July snowfall 0.0  
Since 1 September snowfall 0.0  
Snow Depth 0.00 in    
Sea Level Pressure  
Sea Level Pressure 29.96 in    
Wind  
Wind Speed 12 mph (ENE)    
Max Wind Speed 32 mph    
Max Gust Speed 40 mph    
Visibility 6 miles    
Events Rain , Thunderstorm    
T = Trace of Precipitation, MM = Missing Value Source: NWS Daily Summary

Daily Weather History Graph

Daily Weather History Graph

Search for Another Location

Airport or City:

Trip Planner

Search our weather history database for the weather conditions in past years. The results will help you decide how hot, cold, wet, or windy it might be!

Date:

Astronomy

Oct. 08, 2011 Rise Set
Actual Time 7:16 AM EDT 7:00 PM EDT
Civil Twilight 6:53 AM EDT 7:23 PM EDT
Nautical Twilight 6:26 AM EDT 7:50 PM EDT
Astronomical Twilight 6:00 AM EDT 8:17 PM EDT
Moon 4:57 PM EDT (10/8) 4:18 AM EDT (10/8)
Length of Visible Light 12h 30m
Length of Day
11h 44m
Waxing Gibbous, 90% of the Moon is Illuminated
Oct 8
Waxing Gibbous
Oct 11
Full
Oct 19
Last Quarter
Oct 26
New
Nov 2
First Quarter

Hourly Weather History & Observations

Time (EDT) Temp. Dew Point Humidity Pressure Visibility Wind Dir Wind Speed Gust Speed Precip Events Conditions
12:27 AM 73.4 °F 69.8 °F 88% 30.00 in 10.0 mi NNW 3.5 mph - 0.07 in Rain Light Rain
12:44 AM 73.4 °F 69.8 °F 88% 30.04 in 2.0 mi ESE 20.7 mph 41.4 mph 0.08 in Rain Heavy Rain
12:53 AM 73.9 °F 72.0 °F 93% 30.02 in 2.0 mi Variable 4.6 mph 16.1 mph 0.69 in Rain , Thunderstorm Heavy Thunderstorms and Rain
1:16 AM 71.6 °F 69.8 °F 94% 30.01 in 5.0 mi Calm Calm - 0.34 in Rain , Thunderstorm Light Thunderstorms and Rain
1:33 AM 71.6 °F 69.8 °F 94% 30.00 in 9.0 mi North 4.6 mph - N/A Rain Light Rain
1:53 AM 71.1 °F 69.8 °F 96% 30.00 in 10.0 mi NE 3.5 mph - 0.39 in   Overcast
2:53 AM 73.9 °F 71.4 °F 92% 29.96 in 10.0 mi Calm Calm - N/A   Mostly Cloudy
3:53 AM 73.9 °F 71.4 °F 92% 29.95 in 10.0 mi NE 5.8 mph - 0.00 in   Scattered Clouds
4:53 AM 78.1 °F 71.1 °F 79% 29.94 in 10.0 mi ENE 6.9 mph - N/A   Scattered Clouds
5:53 AM 79.0 °F 70.0 °F 74% 29.96 in 10.0 mi ENE 4.6 mph - N/A   Mostly Cloudy
6:53 AM 79.0 °F 72.0 °F 79% 29.96 in 9.0 mi ENE 8.1 mph - 0.00 in Rain Light Rain
7:53 AM 77.0 °F 72.0 °F 84% 29.97 in 10.0 mi NE 6.9 mph - 0.00 in   Overcast
8:53 AM 75.2 °F 73.4 °F 94% 29.98 in 4.0 mi Variable 4.6 mph - N/A Rain Light Rain
9:06 AM 75.2 °F 73.4 °F 94% 29.99 in 0.8 mi ENE 8.1 mph - 0.03 in Rain Light Rain
9:38 AM 75.2 °F 73.4 °F 94% 30.00 in 3.0 mi NNE 8.1 mph - 0.58 in Rain Light Rain
9:53 AM 75.0 °F 75.0 °F 100% 30.00 in 3.0 mi ENE 4.6 mph - 0.64 in Rain Rain
10:53 AM 78.1 °F 75.0 °F 90% 29.99 in 8.0 mi ENE 9.2 mph - 0.04 in Rain Light Rain
11:35 AM 73.4 °F 71.6 °F 94% 29.99 in 1.5 mi East 21.9 mph 31.1 mph 0.12 in Rain Heavy Rain
11:40 AM 73.4 °F 71.6 °F 94% 29.99 in 1.5 mi ENE 17.3 mph 27.6 mph 0.25 in Rain , Thunderstorm Heavy Thunderstorms and Rain
11:53 AM 73.0 °F 70.0 °F 90% 29.99 in 1.5 mi ENE 18.4 mph 26.5 mph 0.39 in Rain , Thunderstorm Heavy Thunderstorms and Rain
12:11 PM 73.4 °F 69.8 °F 88% 29.98 in 4.0 mi ENE 16.1 mph 24.2 mph 0.10 in Rain Light Rain
12:53 PM 73.9 °F 69.1 °F 85% 29.97 in 4.0 mi Variable 4.6 mph 24.2 mph 0.37 in Rain Rain
1:53 PM 77.0 °F 71.1 °F 82% 29.93 in 10.0 mi East 18.4 mph 27.6 mph 0.17 in   Overcast
2:35 PM 78.8 °F 71.6 °F 78% 29.92 in 8.0 mi ENE 8.1 mph - 0.00 in Rain Light Rain
2:53 PM 77.0 °F 71.1 °F 82% 29.91 in 7.0 mi ENE 17.3 mph 25.3 mph 0.01 in Rain Rain
3:53 PM 75.9 °F 70.0 °F 82% 29.91 in 7.0 mi East 28.8 mph 40.3 mph 0.03 in   Overcast
4:53 PM 75.9 °F 70.0 °F 82% 29.90 in 6.0 mi ENE 13.8 mph 25.3 mph 0.07 in Rain Rain
5:53 PM 75.0 °F 71.1 °F 87% 29.91 in 5.0 mi ENE 11.5 mph - 0.18 in Rain Rain
6:53 PM 77.0 °F 71.1 °F 82% 29.89 in 5.0 mi East 16.1 mph 21.9 mph 0.17 in Rain Light Rain
7:53 PM 77.0 °F 70.0 °F 79% 29.89 in 7.0 mi East 21.9 mph 29.9 mph 0.06 in Rain Light Rain
8:53 PM 78.1 °F 70.0 °F 76% 29.90 in 7.0 mi East 21.9 mph 33.4 mph 0.00 in Rain Light Rain
9:53 PM 77.0 °F 72.0 °F 84% 29.92 in 5.0 mi East 12.7 mph - 0.04 in Rain Light Rain
10:53 PM 73.9 °F 70.0 °F 87% 29.93 in 10.0 mi ENE 16.1 mph 27.6 mph 0.14 in Rain Light Rain
11:33 PM 75.2 °F 71.6 °F 89% 29.92 in 2.5 mi ENE 10.4 mph - 0.09 in Rain Heavy Rain
11:53 PM 75.9 °F 72.0 °F 87% 29.91 in 4.0 mi East 9.2 mph - 0.23 in Rain Rain